[[{"header":{"parameterUnit":"m.s-1","parameterCategory":1,"la1":30.2992,"la2":30.254,"lo1":-89.0895,"lo2":-89.0443,"dy":0.0025,"dx":0.0025,"nx":19,"ny":19,"refTime":"2026-03-25T21:00:00:Z","depth":0,"parameterNumber":2,"parameterNumberName":"U-component_of_WINDS"},"data":[0,0,0,-2.5161,-2.5161,-2.5109,-2.5109,-2.5075,-2.5075,0,0,0,0,0,0,0,0,0,0,0,-2.5195,-2.5196,-2.5161,-2.5161,-2.5109,-2.5109,-2.5075,-2.5075,0,0,0,0,0,0,0,0,0,0,0,-2.5195,-2.5196,-2.5196,-2.516,-2.5109,-2.5109,-2.5075,-2.5102,0,0,0,0,0,0,0,0,0,0,-2.5147,-2.5197,-2.5196,-2.5196,-2.516,-2.5109,-2.5109,-2.5103,-2.5101,-2.5112,0,-2.5126,0,-2.51,-2.5074,-2.5074,0,0,0,-2.5146,-2.5199,-2.5168,-2.5196,-2.516,-2.511,-2.5128,-2.5101,-2.5099,-2.5109,-2.5126,-2.5123,-2.51,-2.5074,-2.5074,-2.5187,-2.5188,0,0,-2.5149,-2.5196,-2.517,-2.5167,-2.5177,-2.513,-2.5127,-2.5099,-2.5121,-2.5125,-2.5122,-2.5099,-2.5074,-2.5074,-2.5186,-2.5188,0,0,0,-2.5167,-2.5199,-2.5168,-2.517,-2.5158,-2.5129,-2.5125,-2.5122,-2.5108,-2.5121,-2.5099,-2.5074,-2.5074,-2.5185,-2.5187,-2.5291,0,0,0,-2.5168,-2.5209,-2.517,-2.5198,-2.5159,-2.5139,-2.5149,-2.511,-2.5105,-2.5099,-2.5074,-2.5074,-2.5183,-2.5186,-2.5286,-2.5332,0,0,0,-2.5192,-2.5212,-2.5211,-2.5201,-2.5181,-2.5139,-2.5122,-2.5108,-2.5092,-2.5074,-2.5074,-2.5182,-2.5185,-2.528,-2.5324,-2.5376,0,0,0,-2.5232,-2.5304,-2.5213,-2.5286,-2.5181,-2.5205,-2.5122,-2.5137,-2.5134,-2.5074,-2.5183,-2.5186,-2.5279,-2.5318,-2.5371,-2.5427,-2.5456,0,0,-2.5349,-2.532,-2.5359,-2.5276,-2.5328,-2.5209,-2.5275,-2.5228,-2.5183,-2.5188,-2.519,-2.5288,-2.5323,-2.5375,-2.5601,-2.5624,0,0,0,-2.5412,-2.5441,-2.5444,-2.5444,-2.5411,-2.5386,-2.5324,-2.5307,-2.5309,-2.5195,-2.532,-2.5339,-2.5368,-2.5392,-2.5412,-2.5433,-2.52,-2.52,-2.52,-2.5644,-2.5584,-2.5645,-2.558,-2.5581,-2.5518,-2.5513,-2.5479,-2.5417,-2.5448,-2.5448,-2.5593,-2.5624,-2.5638,-2.5661,-2.5475,-2.5475,-2.5476,-2.5476,-2.581,-2.5841,-2.5759,-2.5788,-2.5725,-2.5749,-2.5692,-2.5648,-2.5661,-2.5587,-2.5609,-2.5532,-2.5665,-2.5682,-2.5483,-2.5482,-2.5481,-2.548,-2.548,-2.5954,-2.5959,-2.5938,-2.5933,-2.5937,-2.5869,-2.5886,-2.5827,-2.5773,-2.5795,-2.5789,-2.5787,-2.5777,-2.5796,-2.5797,-2.5797,-2.5798,-2.5798,-2.5799,-2.6111,-2.6085,-2.6106,-2.6079,-2.6073,-2.6057,-2.5996,-2.5988,-2.5964,-2.592,-2.592,-2.5855,-2.569,-2.5649,-2.5806,-2.5805,-2.5804,-2.5803,-2.5802,-2.6299,-2.6248,-2.6281,-2.6275,-2.6239,-2.6248,-2.6174,-2.6164,-2.6149,-2.616,-2.6091,-2.5979,-2.5944,-2.5928,-2.5894,-2.6104,-2.6104,-2.6104,-2.6104,-2.6419,-2.6397,-2.6419,-2.6413,-2.6401,-2.6339,-2.638,-2.6335,-2.628,-2.6267,-2.6229,-2.6179,-2.6165,-2.6138,-2.6118,-2.6084,-2.6339,-2.6339,-2.6339,-2.6531,-2.6506,-2.655,-2.6497,-2.6465,-2.644,-2.6477,-2.6474,-2.6401,-2.6348,-2.6256,-2.6246,-2.6164,-2.6141,-2.6083,-2.6053,-2.5991,0,0]},{"header":{"parameterUnit":"m.s-1","parameterCategory":1,"la1":30.2992,"la2":30.254,"lo1":-89.0895,"lo2":-89.0443,"dy":0.0025,"dx":0.0025,"nx":19,"ny":19,"refTime":"2026-03-25T21:00:00:Z","depth":0,"parameterNumber":3,"parameterNumberName":"V-component_of_WINDS"},"data":[0,0,0,2.8076,2.8076,2.8087,2.8087,2.8078,2.8077,0,0,0,0,0,0,0,0,0,0,0,2.806,2.8059,2.8076,2.8076,2.8087,2.8087,2.8078,2.8077,0,0,0,0,0,0,0,0,0,0,0,2.806,2.8059,2.8059,2.8076,2.8087,2.8087,2.8078,2.8077,0,0,0,0,0,0,0,0,0,0,2.807,2.8043,2.806,2.8059,2.8076,2.8087,2.8087,2.8078,2.8077,2.8063,0,2.8048,0,2.8062,2.8075,2.8075,0,0,0,2.8085,2.8043,2.8058,2.8059,2.8076,2.8087,2.8085,2.8078,2.8077,2.8062,2.8048,2.8048,2.8062,2.8075,2.8075,2.7965,2.7964,0,0,2.8084,2.8054,2.8059,2.8057,2.8056,2.8084,2.8085,2.8078,2.8059,2.8048,2.8048,2.8062,2.8075,2.8075,2.7966,2.7965,0,0,0,2.8077,2.8053,2.8069,2.8057,2.8061,2.8084,2.8085,2.806,2.8068,2.8048,2.8062,2.8075,2.8074,2.7967,2.7966,2.789,0,0,0,2.8077,2.8049,2.8068,2.805,2.8061,2.8061,2.8067,2.8068,2.8068,2.8062,2.8075,2.8074,2.7968,2.7966,2.7895,2.7859,0,0,0,2.8063,2.8047,2.8045,2.8048,2.8052,2.8062,2.807,2.8069,2.8076,2.8075,2.8074,2.7969,2.7967,2.7899,2.7865,2.7821,0,0,0,2.804,2.7976,2.8043,2.7978,2.8052,2.8016,2.807,2.8044,2.8035,2.8075,2.7968,2.7966,2.79,2.7869,2.7825,2.7777,2.7755,0,0,2.7942,2.7963,2.7927,2.7988,2.7932,2.8017,2.795,2.7969,2.7995,2.7973,2.7971,2.7893,2.7866,2.7822,2.7644,2.7626,0,0,0,2.7886,2.7859,2.7852,2.7842,2.7857,2.7866,2.7899,2.7906,2.7889,2.7979,2.7867,2.7851,2.7827,2.7805,2.779,2.7771,2.7955,2.7955,2.7956,2.7702,2.7743,2.7686,2.7727,2.7717,2.7753,2.7748,2.7764,2.7805,2.7778,2.7771,2.7658,2.7632,2.7621,2.76,2.775,2.775,2.775,2.775,2.7563,2.7531,2.7591,2.7557,2.7599,2.757,2.7602,2.7633,2.7611,2.7666,2.7647,2.7702,2.76,2.7584,2.7744,2.7745,2.7746,2.7746,2.7747,2.7446,2.7438,2.745,2.7441,2.743,2.7474,2.7452,2.7491,2.7527,2.7508,2.7505,2.7506,2.7511,2.7504,2.7504,2.7503,2.7503,2.7503,2.7502,2.7319,2.7335,2.7312,2.7324,2.7324,2.7329,2.7365,2.7366,2.7376,2.7406,2.7406,2.7449,2.7584,2.7616,2.7496,2.7498,2.7498,2.7499,2.7499,2.7159,2.7203,2.7167,2.7167,2.7185,2.7171,2.7223,2.722,2.7226,2.7214,2.7263,2.7356,2.7379,2.7391,2.7418,2.7255,2.7255,2.7255,2.7255,2.706,2.7077,2.705,2.7047,2.705,2.7093,2.7051,2.7079,2.7114,2.712,2.715,2.719,2.7201,2.7217,2.7233,2.7259,2.7059,2.7059,2.7058,2.6964,2.6983,2.6939,2.6977,2.6995,2.7008,2.6969,2.6962,2.7012,2.7051,2.7126,2.7134,2.7198,2.7217,2.7255,2.728,2.7327,0,0]}]]